timestamp,wind_dir_avg,wind_spd_avg,wind_spd_max_dir,wind_spd_gust,battery_voltage,lat,long
2022-03-04 00:04:00+00:00,294.0,5.86,297.0,6.32,12.41,47.59359,-54.27349
2022-03-04 00:14:01+00:00,323.0,3.07,297.0,5.37,12.41,47.59359,-54.27349
2022-03-04 00:24:01+00:00,356.0,2.24,358.0,2.73,12.41,47.59359,-54.27349
2022-03-04 00:34:01+00:00,2.0,2.19,359.0,2.5,12.41,47.59359,-54.27349
2022-03-04 00:44:01+00:00,14.0,3.09,56.0,5.78,12.41,47.59359,-54.27349
2022-03-04 00:54:01+00:00,0.0,3.62,357.0,3.99,12.41,47.59359,-54.27349
2022-03-04 01:04:01+00:00,5.0,3.27,31.0,3.93,12.41,47.59359,-54.27349
2022-03-04 01:14:01+00:00,12.0,3.75,31.0,4.67,12.41,47.59359,-54.27349
2022-03-04 01:24:01+00:00,34.0,4.75,52.0,6.67,12.41,47.59359,-54.27349
2022-03-04 01:34:01+00:00,38.0,5.13,51.0,6.88,12.41,47.59359,-54.27349
2022-03-04 01:44:01+00:00,39.0,4.33,55.0,5.69,12.41,47.59359,-54.27349
2022-03-04 01:54:01+00:00,42.0,4.05,59.0,6.1,12.41,47.59359,-54.27349
2022-03-04 02:04:01+00:00,47.0,5.81,54.0,7.41,12.41,47.59359,-54.27349
2022-03-04 02:14:00+00:00,38.0,5.2,49.0,6.7,12.25,47.59359,-54.27349
2022-03-04 02:24:00+00:00,37.0,7.32,42.0,8.45,12.25,47.59359,-54.27349
2022-03-04 02:34:00+00:00,27.0,6.17,32.0,7.06,12.25,47.59359,-54.27349
2022-03-04 02:44:00+00:00,37.0,8.11,37.0,9.3,12.25,47.59359,-54.27349
2022-03-04 02:54:00+00:00,28.0,7.55,31.0,8.63,12.25,47.59359,-54.27349
2022-03-04 03:04:00+00:00,28.0,8.06,29.0,9.23,12.25,47.59359,-54.27349
2022-03-04 03:14:00+00:00,41.0,6.71,30.0,10.08,12.25,47.59359,-54.27349
2022-03-04 03:24:00+00:00,19.0,7.55,34.0,8.59,12.25,47.59359,-54.27349
2022-03-04 03:34:00+00:00,34.0,7.71,42.0,10.14,12.25,47.59359,-54.27349
2022-03-04 03:44:00+00:00,25.0,8.84,34.0,10.74,12.25,47.59359,-54.27349
2022-03-04 03:54:00+00:00,36.0,8.93,56.0,11.46,12.25,47.59359,-54.27349
2022-03-04 04:04:00+00:00,36.0,10.04,40.0,11.56,12.25,47.59359,-54.27349
2022-03-04 04:14:01+00:00,21.0,8.48,41.0,10.64,12.33,47.59359,-54.27349
2022-03-04 04:24:01+00:00,23.0,8.84,45.0,11.31,12.33,47.59359,-54.27349
2022-03-04 04:34:01+00:00,18.0,9.67,21.0,11.59,12.33,47.59359,-54.27349
2022-03-04 04:44:01+00:00,15.0,11.96,35.0,15.2,12.33,47.59359,-54.27349
2022-03-04 04:54:01+00:00,13.0,12.75,7.0,14.57,12.33,47.59359,-54.27349
2022-03-04 05:04:01+00:00,16.0,11.86,30.0,14.2,12.33,47.59359,-54.27349
2022-03-04 05:14:00+00:00,13.0,9.91,19.0,11.8,12.25,47.59359,-54.27349
2022-03-04 05:24:00+00:00,25.0,10.77,22.0,12.67,12.25,47.59359,-54.27349
2022-03-04 05:34:00+00:00,28.0,10.2,27.0,12.55,12.25,47.59359,-54.27349
2022-03-04 05:44:00+00:00,18.0,12.27,22.0,14.22,12.25,47.59359,-54.27349
2022-03-04 05:54:00+00:00,11.0,11.08,9.0,12.17,12.25,47.59359,-54.27349
2022-03-04 06:04:00+00:00,14.0,12.84,14.0,14.86,12.25,47.59359,-54.27349
2022-03-04 06:14:01+00:00,19.0,11.54,12.0,13.03,12.25,47.59359,-54.27349
2022-03-04 06:24:01+00:00,16.0,12.97,19.0,14.61,12.25,47.59359,-54.27349
2022-03-04 06:34:01+00:00,17.0,11.6,15.0,13.35,12.25,47.59359,-54.27349
2022-03-04 06:44:01+00:00,17.0,12.45,24.0,13.91,12.25,47.59359,-54.27349
2022-03-04 06:54:01+00:00,9.0,10.92,26.0,12.89,12.25,47.59359,-54.27349
2022-03-04 07:04:01+00:00,1.0,11.06,13.0,13.35,12.25,47.59359,-54.27349
2022-03-04 07:14:00+00:00,5.0,9.5,29.0,11.65,12.17,47.59359,-54.27349
2022-03-04 07:24:00+00:00,343.0,11.77,332.0,14.56,12.17,47.59359,-54.27349
2022-03-04 07:34:00+00:00,354.0,9.92,358.0,12.0,12.17,47.59359,-54.27349
2022-03-04 07:44:00+00:00,348.0,11.7,358.0,14.09,12.17,47.59359,-54.27349
2022-03-04 07:54:00+00:00,335.0,11.59,332.0,13.53,12.17,47.59359,-54.27349
2022-03-04 08:04:00+00:00,335.0,11.37,342.0,14.01,12.17,47.59359,-54.27349
2022-03-04 08:14:00+00:00,339.0,12.3,340.0,14.91,12.17,47.59359,-54.27349
2022-03-04 08:24:00+00:00,343.0,12.09,334.0,15.39,12.17,47.59359,-54.27349
2022-03-04 08:34:00+00:00,335.0,12.15,332.0,13.57,12.17,47.59359,-54.27349
2022-03-04 08:44:00+00:00,336.0,11.45,335.0,12.79,12.17,47.59359,-54.27349
2022-03-04 08:54:00+00:00,338.0,11.04,328.0,13.22,12.17,47.59359,-54.27349
2022-03-04 09:04:00+00:00,338.0,9.7,338.0,11.0,12.17,47.59359,-54.27349
2022-03-04 09:14:01+00:00,333.0,11.2,328.0,13.77,12.17,47.59359,-54.27349
2022-03-04 09:24:01+00:00,336.0,10.87,326.0,13.61,12.17,47.59359,-54.27349
2022-03-04 09:34:01+00:00,330.0,10.53,328.0,14.15,12.17,47.59359,-54.27349
2022-03-04 09:44:01+00:00,322.0,11.3,324.0,13.71,12.17,47.59359,-54.27349
2022-03-04 09:54:01+00:00,324.0,11.34,327.0,12.61,12.17,47.59359,-54.27349
2022-03-04 10:04:01+00:00,325.0,10.16,322.0,12.17,12.17,47.59359,-54.27349
2022-03-04 10:14:00+00:00,317.0,10.71,308.0,12.77,12.09,47.59359,-54.27349
2022-03-04 10:24:00+00:00,319.0,11.39,323.0,13.33,12.09,47.59359,-54.27349
2022-03-04 10:34:00+00:00,317.0,10.69,320.0,12.81,12.09,47.59359,-54.27349
2022-03-04 10:44:00+00:00,321.0,12.43,326.0,15.28,12.09,47.59359,-54.27349
2022-03-04 10:54:00+00:00,316.0,11.34,311.0,12.96,12.09,47.59359,-54.27349
2022-03-04 11:04:00+00:00,318.0,11.24,321.0,13.4,12.09,47.59359,-54.27349
2022-03-04 11:14:00+00:00,318.0,11.71,321.0,13.56,12.49,47.59359,-54.27349
2022-03-04 11:24:00+00:00,314.0,10.36,314.0,11.54,12.49,47.59359,-54.27349
2022-03-04 11:34:00+00:00,318.0,9.07,319.0,10.66,12.49,47.59359,-54.27349
2022-03-04 11:44:00+00:00,311.0,8.88,317.0,10.18,12.49,47.59359,-54.27349
2022-03-04 11:54:00+00:00,309.0,8.38,316.0,10.11,12.49,47.59359,-54.27349
2022-03-04 12:04:00+00:00,315.0,7.45,313.0,9.11,12.49,47.59359,-54.27349
2022-03-04 12:14:01+00:00,310.0,6.51,317.0,8.91,13.68,47.59359,-54.27349
2022-03-04 12:24:01+00:00,301.0,7.32,307.0,8.94,13.68,47.59359,-54.27349
2022-03-04 12:34:01+00:00,302.0,7.96,298.0,10.03,13.68,47.59359,-54.27349
2022-03-04 12:44:01+00:00,300.0,6.63,299.0,8.3,13.68,47.59359,-54.27349
2022-03-04 12:54:01+00:00,290.0,6.69,284.0,7.95,13.68,47.59359,-54.27349
2022-03-04 13:04:01+00:00,300.0,6.0,290.0,9.51,13.68,47.59359,-54.27349
2022-03-04 13:14:00+00:00,307.0,9.01,308.0,9.93,13.68,47.59359,-54.27349
2022-03-04 13:24:00+00:00,296.0,7.73,306.0,9.24,13.68,47.59359,-54.27349
2022-03-04 13:34:00+00:00,326.0,6.46,332.0,7.42,13.68,47.59359,-54.27349
2022-03-04 13:44:00+00:00,288.0,7.37,292.0,8.52,13.68,47.59359,-54.27349
2022-03-04 13:54:00+00:00,295.0,7.57,294.0,8.71,13.68,47.59359,-54.27349
2022-03-04 14:04:00+00:00,283.0,6.28,304.0,7.96,13.68,47.59359,-54.27349
2022-03-04 14:14:00+00:00,284.0,7.89,277.0,9.19,13.68,47.59359,-54.27349
2022-03-04 14:24:00+00:00,302.0,7.93,301.0,8.81,13.68,47.59359,-54.27349
2022-03-04 14:34:00+00:00,306.0,9.44,307.0,10.35,13.68,47.59359,-54.27349
2022-03-04 14:44:00+00:00,307.0,10.38,306.0,12.9,13.68,47.59359,-54.27349
2022-03-04 14:54:00+00:00,308.0,9.54,317.0,10.9,13.68,47.59359,-54.27349
2022-03-04 15:04:00+00:00,283.0,8.14,283.0,9.7,13.68,47.59359,-54.27349
2022-03-04 15:14:01+00:00,294.0,9.18,292.0,10.41,13.68,47.59359,-54.27349
2022-03-04 15:24:01+00:00,282.0,8.71,278.0,10.91,13.68,47.59359,-54.27349
2022-03-04 15:34:01+00:00,284.0,7.93,271.0,10.1,13.68,47.59359,-54.27349
2022-03-04 15:44:01+00:00,272.0,8.37,278.0,10.6,13.68,47.59359,-54.27349
2022-03-04 15:54:01+00:00,286.0,10.91,291.0,14.17,13.68,47.59359,-54.27349
2022-03-04 16:04:01+00:00,301.0,10.7,301.0,12.86,13.68,47.59359,-54.27349
2022-03-04 16:14:00+00:00,286.0,9.23,280.0,11.92,13.68,47.59359,-54.27349
2022-03-04 16:24:00+00:00,278.0,10.85,279.0,12.43,13.68,47.59359,-54.27349
2022-03-04 16:34:00+00:00,290.0,9.23,278.0,11.07,13.68,47.59359,-54.27349
2022-03-04 16:44:00+00:00,301.0,7.98,301.0,9.59,13.68,47.59359,-54.27349
2022-03-04 16:54:00+00:00,291.0,11.29,300.0,13.37,13.68,47.59359,-54.27349
2022-03-04 17:04:00+00:00,288.0,10.75,284.0,13.47,13.68,47.59359,-54.27349
2022-03-04 17:14:01+00:00,291.0,10.52,297.0,13.52,13.68,47.59359,-54.27349
2022-03-04 17:24:01+00:00,271.0,12.49,274.0,17.62,13.68,47.59359,-54.27349
2022-03-04 17:34:01+00:00,278.0,12.29,277.0,17.4,13.68,47.59359,-54.27349
2022-03-04 17:44:01+00:00,273.0,8.92,275.0,11.67,13.68,47.59359,-54.27349
2022-03-04 17:54:01+00:00,307.0,8.15,320.0,10.59,13.68,47.59359,-54.27349
2022-03-04 18:04:01+00:00,312.0,11.0,307.0,12.59,13.68,47.59359,-54.27349
2022-03-04 18:14:00+00:00,299.0,8.7,301.0,10.04,14.0,47.59359,-54.27349
2022-03-04 18:24:00+00:00,308.0,9.35,308.0,10.24,14.0,47.59359,-54.27349
2022-03-04 18:34:00+00:00,315.0,9.02,313.0,10.17,14.0,47.59359,-54.27349
2022-03-04 18:44:00+00:00,281.0,9.08,276.0,16.53,14.0,47.59359,-54.27349
2022-03-04 18:54:00+00:00,281.0,12.32,283.0,17.82,14.0,47.59359,-54.27349
2022-03-04 19:04:00+00:00,268.0,12.79,272.0,15.33,14.0,47.59359,-54.27349
2022-03-04 19:14:01+00:00,268.0,12.65,267.0,15.21,14.32,47.59359,-54.27349
2022-03-04 19:24:01+00:00,285.0,12.06,283.0,14.82,14.32,47.59359,-54.27349
2022-03-04 19:34:01+00:00,299.0,10.42,302.0,13.6,14.32,47.59359,-54.27349
2022-03-04 19:44:01+00:00,282.0,14.94,283.0,18.53,14.32,47.59359,-54.27349
2022-03-04 19:54:01+00:00,281.0,14.83,285.0,18.28,14.32,47.59359,-54.27349
2022-03-04 20:04:01+00:00,289.0,9.89,298.0,12.22,14.32,47.59359,-54.27349
2022-03-04 20:14:00+00:00,278.0,13.48,277.0,17.36,13.6,47.59359,-54.27349
2022-03-04 20:24:00+00:00,278.0,13.22,278.0,17.91,13.6,47.59359,-54.27349
2022-03-04 20:34:00+00:00,272.0,11.3,270.0,14.61,13.6,47.59359,-54.27349
2022-03-04 20:44:00+00:00,280.0,9.95,285.0,12.29,13.6,47.59359,-54.27349
2022-03-04 20:54:00+00:00,272.0,9.83,268.0,12.79,13.6,47.59359,-54.27349
2022-03-04 21:04:00+00:00,279.0,9.24,273.0,10.88,13.6,47.59359,-54.27349
2022-03-04 21:14:01+00:00,279.0,10.7,278.0,17.23,13.29,47.59359,-54.27349
2022-03-04 21:24:01+00:00,284.0,9.34,279.0,12.32,13.29,47.59359,-54.27349
2022-03-04 21:34:01+00:00,282.0,8.45,280.0,9.81,13.29,47.59359,-54.27349
2022-03-04 21:44:01+00:00,281.0,8.44,288.0,9.58,13.29,47.59359,-54.27349
2022-03-04 21:54:01+00:00,288.0,8.23,289.0,11.45,13.29,47.59359,-54.27349
2022-03-04 22:04:01+00:00,284.0,8.03,281.0,9.65,13.29,47.59359,-54.27349
2022-03-04 22:14:01+00:00,285.0,7.98,282.0,10.77,12.65,47.59359,-54.27349
2022-03-04 22:24:01+00:00,295.0,7.96,289.0,9.6,12.65,47.59359,-54.27349
2022-03-04 22:34:01+00:00,292.0,8.4,300.0,10.05,12.65,47.59359,-54.27349
2022-03-04 22:44:01+00:00,290.0,8.28,284.0,11.82,12.65,47.59359,-54.27349
2022-03-04 22:54:01+00:00,300.0,9.06,299.0,13.36,12.65,47.59359,-54.27349
2022-03-04 23:04:01+00:00,303.0,9.29,294.0,11.45,12.65,47.59359,-54.27349
2022-03-04 23:14:00+00:00,294.0,9.25,297.0,11.37,12.33,47.59359,-54.27349
2022-03-04 23:24:00+00:00,285.0,8.32,283.0,10.49,12.33,47.59359,-54.27349
2022-03-04 23:34:00+00:00,291.0,9.94,307.0,11.28,12.33,47.59359,-54.27349
2022-03-04 23:44:00+00:00,286.0,9.48,292.0,10.94,12.33,47.59359,-54.27349
2022-03-04 23:54:00+00:00,286.0,9.18,289.0,10.98,12.33,47.59359,-54.27349
